Lid_Strength_Index
12 11 11 11 11 11 11 11 11 10 10 10 9 8 7 7 6 5 4 4 4 4 4 5 4 4 4 4 5 5 4 4 4 6 10 11 13 12 12 12 13 11 11
12 12 12 12 12 12 12 12 12 11 11 11 10 10 10 9 9 8 8 7 6 6 6 6 5 5 5 5 5 5 5 4 4 4 12 12 13 12 13 13 13 11 12
12 13 13 13 13 13 13 13 13 13 13 12 12 12 12 11 11 10 10 10 9 8 7 6 5 6 6 6 7 7 6 6 6 8 11 12 13 13 14 13 14 13 12
12 12 13 13 13 13 13 13 13 13 13 13 12 12 12 12 12 11 11 11 10 9 8 8 7 7 7 6 7 7 7 9 9 10 12 13 13 14 13 15 15 14 14
13 14 14 14 14 14 14 14 13 13 13 13 13 13 12 12 12 12 12 12 12 11 11 10 10 10 11 9 8 8 9 9 10 10 11 13 14 15 14 14 14 15 15
14 14 15 15 15 15 15 15 14 14 14 14 14 14 13 13 11 10 11 12 12 13 13 12 12 12 11 10 10 9 9 10 10 10 10 11 11 12 12 14 14 16 17
15 15 15 15 15 15 15 15 15 14 14 14 14 14 14 13 11 10 10 12 12 12 12 12 12 11 12 11 10 8 8 8 8 9 10 10 10 11 12 14 14 14 15
15 16 16 15 15 15 15 15 15 15 15 15 14 14 14 13 11 10 10 12 12 12 12 12 12 12 12 12 12 12 11 10 9 9 9 10 11 11 11 11 13 14 16
15 16 16 16 16 16 16 16 16 15 15 15 14 14 14 14 11 11 11 13 12 12 12 12 12 12 10 10 12 12 12 12 11 10 10 9 9 9 11 13 15 17 20
16 16 16 16 16 16 16 16 15 15 15 14 14 14 15 14 12 11 11 12 13 13 12 12 12 13 11 10 11 12 13 12 14 13 12 10 10 10 10 12 13 15 17
16 16 16 16 16 16 16 16 16 16 15 16 15 15 15 15 14 12 11 13 13 13 13 13 13 11 11 10 10 12 12 12 13 15 15 16 14 13 14 13 13 13 16
17 17 18 18 17 16 16 16 17 17 17 18 18 17 17 16 14 13 12 12 12 13 14 13 13 11 10 10 11 10 9 10 17 17 18 17 16 16 15 16 16 16 15
20 21 20 19 18 17 18 17 18 19 19 19 18 18 17 16 16 14 13 13 12 14 14 13 12 11 10 11 10 10 11 13 17 19 17 16 16 15 16 17 17 17 17
22 21 20 20 20 19 18 18 19 20 20 19 18 17 16 16 16 15 14 13 13 13 14 14 13 12 11 11 13 12 13 14 15 16 15 15 15 16 17 17 18 18 19
21 21 21 21 22 21 20 20 20 18 18 19 18 18 17 17 16 14 14 14 14 13 13 13 14 16 15 15 14 15 16 15 16 15 16 16 16 16 17 17 17 18 19
23 23 23 23 23 22 22 22 18 17 16 15 15 15 16 15 14 14 14 13 13 13 14 14 14 15 16 15 16 16 17 16 15 15 16 16 17 17 17 17 17 19 20
25 23 24 24 24 24 23 23 23 21 18 17 16 16 16 16 15 15 14 14 13 13 15 15 14 14 16 15 15 14 16 15 14 15 15 15 16 17 17 18 18 18 20
29 27 26 26 26 26 25 24 24 24 24 23 20 19 17 17 17 16 15 15 18 17 17 16 15 14 14 15 14 14 15 14 15 15 15 15 16 16 17 18 18 19 19
28 28 28 28 28 27 26 26 26 26 25 25 23 21 21 19 18 17 16 20 20 19 18 17 16 15 14 14 14 13 13 13 14 14 15 15 16 16 17 17 18 18 18
33 30 29 30 29 29 28 27 26 26 26 25 25 24 24 24 23 21 20 20 19 18 17 17 16 15 14 13 13 12 12 14 14 15 15 15 16 16 16 17 18 18 18
33 33 31 32 32 30 29 28 27 26 26 26 25 24 20 21 22 22 22 22 21 20 19 18 17 17 16 15 13 12 13 13 14 14 15 15 16 16 16 16 17 17 18
34 34 34 34 31 31 30 29 27 27 27 27 26 25 21 24 24 23 22 21 20 19 19 18 18 17 17 16 14 12 13 13 14 14 14 15 16 16 16 17 17 17 18
34 34 34 33 33 31 30 31 29 28 28 27 27 26 25 24 24 23 22 21 20 20 19 18 18 18 17 16 14 13 13 13 13 14 15 15 16 17 17 18 18 18 19
35 35 34 33 34 33 32 30 29 29 28 28 27 26 25 24 23 22 22 21 20 20 19 18 18 18 17 17 16 15 14 13 13 14 15 16 17 17 18 18 18 18 19
37 36 36 34 34 33 32 30 29 29 28 27 26 25 25 24 23 22 21 20 20 20 19 18 18 18 17 17 17 16 14 14 13 14 15 16 17 18 18 18 19 19 20
37 37 36 35 34 34 33 30 29 28 27 26 25 25 24 23 23 22 21 21 20 20 19 19 18 18 18 18 17 16 15 14 14 14 15 16 17 18 18 19 19 20 21